Regional Weather Roundup
Issued by NWS Sterling, VA

Home | Current Version | Previous Version | Text Only | Print | Product List | Glossary Off
Versions: 1 2 3 4 5 6 7 8 9 10 11 12 13 14 15 16 17 18 19 20 21 22 23 24 25 26 27 28 29 30 31 32 33 34 35 36 37 38 39 40 41 42 43 44 45 46 47 48 49 50

000
ASUS41 KLWX 171010
RWRLWX

REGIONAL WEATHER ROUNDUP
NATIONAL WEATHER SERVICE BALTIMORE MD/WASHINGTON DC
500 AM EST WED DEC 17 2014

Note: "FAIR" indicates few or no clouds below 12,000 feet
with no significant weather and/or obstructions to visibility.
 TC=TEMPERATURE CELSIUS

 * =Non NWS site. Station does not report precipitation (e.g. rain,
    snow, etc.), thunder, or fog.

DCZ001-MDZ009-015-VAZ040>042-051-053>054-171100-
WASHINGTON METRO

CITY           SKY/WX    TMP DP  RH WIND       PRES   REMARKS
WASHINGTON NAT PTCLDY    43  37  79 SW7       29.94S
DULLES         CLEAR     36  35  96 SW5       29.93S
ANDREWS AFB    CLEAR     41  41  99 W9        29.92S
FT BELVOIR     CLEAR     39  39 100 CALM      29.95R FOG
QUANTICO       FOG       42  40  92 W3        29.96S VSB 1
COLLEGE PARK*  MOCLDY    36  36 100 CALM      29.92F VSB 1/4
LEESBURG*      CLEAR     46  41  81 NW14G28   29.93S
MANASSAS*      CLOUDY    37  37 100 CALM      29.95R VSB 1/4
GAITHERSBURG*  PTCLDY    36  34  93 CALM      29.95S

$$

MDZ006>007-011-014-171100-
BALTIMORE METRO

CITY           SKY/WX    TMP DP  RH WIND       PRES   REMARKS
BWI AIRPORT    CLEAR     39  37  92 W5        29.91S
MD SCIENCE CTR   N/A     39  38  96 MISG      29.91S
MARTIN STATE   FOG       37  37 100 CALM      29.92S VSB 1
ANNAPOLIS      CLEAR     42  39  89 NW3       29.92R
FORT MEADE*      N/A     36  34  93 CALM      29.94S VSB 3/4

$$

MDZ012-015-019>023-171100-
MARYLAND EASTERN SHORE

CITY           SKY/WX    TMP DP  RH WIND       PRES   REMARKS
OCEAN CITY     CLEAR     44  42  93 NW7       29.90R FOG
SALISBURY      CLEAR     46  41  82 W7        29.92R
BAY BRIDGE AP*   N/A     41  41 100 W5        29.92S
CAMBRIDGE*     CLEAR     43  41  93 W7        29.92R
EASTON*        CLEAR     44  44 100 W6        29.95S FOG

$$

MDZ017>025-171100-
SOUTHERN MARYLAND

CITY           SKY/WX    TMP DP  RH WIND       PRES   REMARKS
PATUXENT RIVER FOG       39  38  96 W3        29.94R VSB 1
ST INIGOES     CLOUDY    44  40  85 W8        29.93S FOG
LEONARDTOWN*   CLOUDY    41  39  93 W7        29.94S

$$

MDZ003>005-171100-
NORTH CENTRAL MARYLAND

CITY           SKY/WX    TMP DP  RH WIND       PRES   REMARKS
FREDERICK*     CLEAR     41  36  81 SW3       29.94S
HAGERSTOWN APT MOCLDY    46  38  73 W13       29.90S
WESTMINSTER*   MOCLDY    43  39  87 W7        29.89S

$$

MDZ501>502-171100-
WESTERN MARYLAND

CITY           SKY/WX    TMP DP  RH WIND       PRES   REMARKS
OAKLAND*       NOT AVBL
CUMBERLAND*    CLOUDY    46  36  66 SE3G18    29.98S

$$

VAZ025>031-171100-
SHENANDOAH VALLEY

CITY           SKY/WX    TMP DP  RH WIND       PRES   REMARKS
WINCHESTER*    CLOUDY    46  32  57 W8        29.93S
FRONT ROYAL*   PTSUNNY   41  36  81 CALM      29.92S
LURAY*         CLOUDY    46  37  71 SW6       29.93S
NEW MARKET*    CLOUDY    37  35  94 SW3       29.93S
STAUNTON*      MOCLDY    41  34  77 S3        29.96S
WAYNESBORO*    FAIR      42  34  73 SW6       29.94S

$$

WVZ021-048>050-054>055-171100-
EASTERN WEST VIRGINIA PANHANDLE

CITY           SKY/WX    TMP DP  RH WIND       PRES   REMARKS
MARTINSBURG    CLOUDY    47  36  65 SW3       29.93S
PETERSBURG*    MOCLDY    46  34  64 W6        29.95S

$$

VAZ036>039-050-171100-
CENTRAL FOOTHILLS

CITY           SKY/WX    TMP DP  RH WIND       PRES   REMARKS
CHARLOTTESVILL PTCLDY    42  35  76 S5        29.94S
CULPEPER*      FOG       39  39 100 CALM      29.95S VSB<1/4
ORANGE*        CLEAR     32  32 100 CALM      29.95F FOG
GORDONSVILLE*  FAIR      30  30  99 CALM      29.94S FOG
WARRENTON*     FOG       40  40 100 SW3       29.94S VSB 1/4

$$

VAZ055>057-171100-
NORTH AND CENTRAL PIEDMONT

CITY           SKY/WX    TMP DP  RH WIND       PRES   REMARKS
FREDERICKSBRG* FOG       42  42 100 CALM      29.95R VSB 1/4
STAFFORD*      FOG       41  41 100 CALM      29.99R VSB 1/4

$$

NCZ024-NYZ072-PAZ021-071-VAZ022-071-171100-
OTHER REGIONAL OBSERVATIONS

CITY           SKY/WX    TMP DP  RH WIND       PRES   REMARKS
NEW YORK CITY  CLOUDY    45  42  89 NW6       29.84S FOG
PHILADELPHIA   PTCLDY    42  39  89 SW8       29.88R
PITTSBURGH     DRIZZLE   38  35  89 W17G23    29.97R WCI  28
ROANOKE        CLOUDY    47  35  63 W16G24    30.02R
RICHMOND       CLEAR     43  38  82 W5        29.95S
RALEIGH        CLEAR     45  37  73 W7        30.04R

$$

ANZ530>537-171100-
MARINE OBSERVATIONS

STATION/POSITION TIME  TEMP    WIND        PRES
                       AIR SEA DIR/SP/G
                 (UTC) (F)     (DEG/KT/KT) (MB)
THOMAS PT LIGHT  1000   43 42  280/  5/  6 1014.5R
BALT KEY BRIDGE  1000   42     220/  9/ 10 1012.5S
COVE POINT       1000   42     310/  7/ 11 1013.4S
LEWISETTA        1000   45 43  290/  2/  3 1013.4F
SOLOMONS ISLAND  1000      44                N/A
PINEY POINT      1000          320/ 11/ 12   N/A

$$




USA.gov is the U.S. government's official web portal to all federal, state and local government web resources and services.